Weather History for KCDW - June, 2014

Change the Weather History Date:

Friday, June 6, 2014

  Actual Average Record
Temperature  
Mean Temperature 66 °F -  
Max Temperature 75 °F 76 °F 92 °F (1966)
Min Temperature 57 °F 53 °F 43 °F (1964)
Cooling Degree Days 1    
Growing Degree Days 16 (Base 50)    
Moisture  
Dew Point 49 °F    
Average Humidity 57    
Maximum Humidity 75    
Minimum Humidity 40    
Precipitation  
Precipitation 0.00 in - - ()
Sea Level Pressure  
Sea Level Pressure 29.90 in    
Wind  
Wind Speed 4 mph (NW)    
Max Wind Speed 13 mph    
Max Gust Speed 21 mph    
Visibility 10 miles    
Events      
Averages and records for this station are not official NWS values.
T = Trace of Precipitation, MM = Missing Value Source: NWS Daily Summary

Daily Weather History Graph

Daily Weather History Graph

Search for Another Location

Airport or City:

Trip Planner

Search our weather history database for the weather conditions in past years. The results will help you decide how hot, cold, wet, or windy it might be!

Date:

Astronomy

Jun. 06, 2014 Rise Set
Actual Time 5:25 AM EDT 8:26 PM EDT
Civil Twilight 4:52 AM EDT 8:59 PM EDT
Nautical Twilight 4:10 AM EDT 9:41 PM EDT
Astronomical Twilight 3:21 AM EDT 10:30 PM EDT
Moon 1:40 PM EDT (6/6) 1:19 AM EDT (6/6)
Length of Visible Light 16h 06m
Length of Day
15h 00m
First Quarter, 58% of the Moon is Illuminated
Jun 6
First Quarter
Jun 13
Full
Jun 19
Last Quarter
Jun 27
New
Jul 5
First Quarter

Hourly Weather History & Observations

Time (EDT) Temp. Dew Point Humidity Pressure Visibility Wind Dir Wind Speed Gust Speed Precip Events Conditions
12:53 AM 62.1 °F 48.0 °F 60% 29.83 in 10.0 mi Calm Calm - N/A   Mostly Cloudy
1:53 AM 61.0 °F 48.0 °F 62% 29.83 in 10.0 mi WNW 3.5 mph - N/A   Mostly Cloudy
2:53 AM 61.0 °F 48.0 °F 62% 29.84 in 10.0 mi WNW 4.6 mph - N/A   Overcast
3:53 AM 61.0 °F 48.9 °F 64% 29.83 in 10.0 mi Calm Calm - N/A   Overcast
4:53 AM 59.0 °F 48.0 °F 67% 29.84 in 10.0 mi NW 4.6 mph - N/A   Partly Cloudy
5:53 AM 57.9 °F 48.0 °F 70% 29.87 in 10.0 mi WNW 6.9 mph - N/A   Clear
6:53 AM 59.0 °F 48.0 °F 67% 29.89 in 10.0 mi WNW 4.6 mph - N/A   Clear
7:53 AM 60.1 °F 48.9 °F 67% 29.91 in 10.0 mi NW 6.9 mph - N/A   Clear
8:53 AM 63.0 °F 50.0 °F 63% 29.91 in 10.0 mi NNW 6.9 mph - N/A   Scattered Clouds
9:53 AM 66.0 °F 50.0 °F 56% 29.91 in 10.0 mi Variable 5.8 mph 17.3 mph N/A   Partly Cloudy
12:53 PM 70.0 °F 48.9 °F 47% 29.91 in 10.0 mi NNW 9.2 mph 17.3 mph N/A   Scattered Clouds
1:53 PM 73.0 °F 50.0 °F 44% 29.90 in 10.0 mi NNW 5.8 mph - N/A   Scattered Clouds
2:53 PM 73.9 °F 50.0 °F 43% 29.89 in 10.0 mi Variable 4.6 mph - N/A   Mostly Cloudy
3:53 PM 73.0 °F 48.9 °F 42% 29.89 in 10.0 mi NNW 8.1 mph 17.3 mph N/A   Partly Cloudy
4:53 PM 75.0 °F 48.9 °F 40% 29.89 in 10.0 mi NW 12.7 mph 20.7 mph N/A   Scattered Clouds
5:53 PM 73.9 °F 50.0 °F 43% 29.90 in 10.0 mi NW 6.9 mph - N/A   Partly Cloudy
6:53 PM 73.9 °F 50.0 °F 43% 29.92 in 10.0 mi NNW 10.4 mph - N/A   Clear
7:53 PM 72.0 °F 50.0 °F 46% 29.94 in 10.0 mi WNW 5.8 mph - N/A   Clear
8:53 PM 68.0 °F 51.1 °F 55% 29.94 in 10.0 mi NW 3.5 mph - N/A   Clear
9:53 PM 64.9 °F 51.1 °F 61% 29.96 in 10.0 mi Calm Calm - N/A   Clear
10:53 PM 62.1 °F 52.0 °F 70% 29.97 in 10.0 mi South 3.5 mph - N/A   Clear
11:53 PM 60.1 °F 52.0 °F 75% 29.98 in 10.0 mi Calm Calm - N/A   Clear